Portada
METAR-TAF:

METAR-TAF

Aeroports :

Sari, Iran

latitud: 36-38-09N, longitud: 53-11-37E, altitud: 11 m

Observació

L'informe es va fer fa 42 minuts, a les 05:00 UTC
Vent 4 kt del Sud-Oest
Temperatura 4°C
Humitat 81%
Pressió 1013 hPa
Visibilitat 10 km o més
sense núvols per sota de 1500 mi sense presència de cumulonimbus.

METAR: OINZ 280500Z 22004KT CAVOK 04/01 Q1013

Hora: 09:12 (05:42 UTC)


TAF: manca

Observacions i pronòstics meteorològics de més de 4000 aeroports (METAR i TAF).

Les estacions disponibles són els punts grocs i vermells al mapa.

Posi el ratolí al punt desitjat per veure el nom de l'estació.

Feu clic per veure les observacions i els pronòstics meteorològics.

Per canviar el mapa: feu clic els botons verds amb una creu de color negre per apropar; al botó verd amb un guió per allunyar la imatge; o en les fletxes verdes per a mapes adjacents.


METAR-TAF: